Location: Nianha
(10.8000°N, 4.6333°W)
Time: 23:40:45
(UTC+00:00)

Centaur D AC-29 - Pass Details

Date: 14 November 2019
Orbit: 529 x 36309 km, 26.7° (Epoch: 19 January)

Event Time Altitude Azimuth Distance (km) Brightness Sun altitude
Exits shadow 05:45:48 - 289° (WNW) 3,822 4.4 -7.4°
Reaches altitude 10° 05:46:36 10° 288° (WNW) 3,422 4.1 -7.2°
Maximum altitude 05:52:33 47° 213° (SSW) 838 1.7 -5.8°
Drops below altitude 10° 05:55:35 10° 136° (SE) 1,756 4.5 -5.1°
Sets 05:57:33 0° 128° (SE) 2,762 6.0 -4.6°
